AEE791 LJLJ-LGAV

Flight info

Callsign AEE791
Flight time 1h 39m
Altitude 39000
Route MODRO1Z MODRO DCT DARZA DCT ELTIB DCT ENFAR DCT TALAS UN130 TSL UL617 AGISA DCT SKP UM749 ROPOX
Aircraft A20N/M-SDE2E3FGHIRWXY/LB1

Departure

Time 2026-05-04 12:51
Airport Ljubljana Jože Pučnik Airport (LJLJ)

Arrival

Time 2026-05-04 14:30
Airport Athens Eleftherios Venizelos International Airport (LGAV)
Time Latitude Longitude Altitude Speed Heading
2026-05-04 12:26 46.23049 14.45377 1268 ft 0 kts 36°
2026-05-04 12:41 46.23047 14.45374 1268 ft 2 kts 37°
2026-05-04 12:41 46.23035 14.45361 1267 ft 2 kts 36°
2026-05-04 12:42 46.23023 14.45348 1266 ft 2 kts 36°
2026-05-04 12:42 46.23011 14.45335 1266 ft 2 kts 58°
2026-05-04 12:42 46.23007 14.45314 1265 ft 2 kts 95°
2026-05-04 12:42 46.23010 14.45298 1266 ft 0 kts 123°
2026-05-04 12:43 46.23015 14.45290 1266 ft 0 kts 127°
2026-05-04 12:43 46.23015 14.45289 1266 ft 0 kts 127°
2026-05-04 12:45 46.23014 14.45291 1266 ft 3 kts 126°
2026-05-04 12:45 46.22965 14.45389 1263 ft 9 kts 129°
2026-05-04 12:45 46.22902 14.45382 1259 ft 12 kts 216°
2026-05-04 12:45 46.22823 14.45348 1255 ft 12 kts 115°
2026-05-04 12:46 46.22787 14.45415 1253 ft 14 kts 130°
2026-05-04 12:46 46.22695 14.45585 1250 ft 24 kts 126°
2026-05-04 12:46 46.22592 14.45783 1243 ft 25 kts 127°
2026-05-04 12:46 46.22481 14.46002 1235 ft 28 kts 126°
2026-05-04 12:47 46.22366 14.46229 1230 ft 28 kts 126°
2026-05-04 12:47 46.22250 14.46457 1226 ft 28 kts 126°
2026-05-04 12:47 46.22133 14.46687 1221 ft 28 kts 127°
2026-05-04 12:47 46.22026 14.46899 1214 ft 22 kts 125°
2026-05-04 12:48 46.21929 14.47085 1209 ft 23 kts 126°
2026-05-04 12:48 46.21829 14.47280 1204 ft 25 kts 127°
2026-05-04 12:48 46.21722 14.47487 1200 ft 25 kts 125°
2026-05-04 12:48 46.21646 14.47614 1197 ft 10 kts 178°
2026-05-04 12:49 46.21586 14.47562 1198 ft 10 kts 216°
2026-05-04 12:49 46.21525 14.47495 1197 ft 11 kts 218°
2026-05-04 12:49 46.21519 14.47422 1196 ft 6 kts 303°
2026-05-04 12:49 46.21525 14.47410 1197 ft 0 kts 306°
2026-05-04 12:50 46.21590 14.47280 1199 ft 48 kts 306°
2026-05-04 12:50 46.21934 14.46613 1215 ft 113 kts 304°
2026-05-04 12:51 46.22512 14.45475 1251 ft 164 kts 305°
2026-05-04 12:51 46.23212 14.44135 1747 ft 170 kts 304°
2026-05-04 12:51 46.23887 14.42727 2328 ft 174 kts 288°
2026-05-04 12:51 46.23841 14.41040 2970 ft 178 kts 241°
2026-05-04 12:52 46.22891 14.39907 3588 ft 186 kts 201°
2026-05-04 12:52 46.21620 14.39654 4289 ft 189 kts 184°
2026-05-04 12:52 46.20322 14.39571 4963 ft 190 kts 186°
2026-05-04 12:52 46.19019 14.39380 5615 ft 192 kts 189°
2026-05-04 12:53 46.17706 14.39126 6278 ft 193 kts 189°
2026-05-04 12:53 46.16347 14.38848 6823 ft 201 kts 189°
2026-05-04 12:53 46.14997 14.38566 7532 ft 199 kts 189°
2026-05-04 12:53 46.13620 14.38317 8171 ft 201 kts 187°
2026-05-04 12:54 46.12237 14.38101 8804 ft 202 kts 188°
2026-05-04 12:54 46.10867 14.37787 9413 ft 203 kts 190°
2026-05-04 12:54 46.09465 14.37454 10004 ft 205 kts 189°
2026-05-04 12:54 46.08049 14.37158 10597 ft 207 kts 188°
2026-05-04 12:55 46.06625 14.36976 11171 ft 208 kts 174°
2026-05-04 12:55 46.05265 14.37603 11695 ft 211 kts 147°
2026-05-04 12:55 46.04055 14.38881 12034 ft 226 kts 141°
2026-05-04 12:55 46.02808 14.40352 12370 ft 243 kts 140°
2026-05-04 12:56 46.01443 14.41971 12719 ft 260 kts 141°
2026-05-04 12:56 45.99993 14.43669 13063 ft 278 kts 141°
2026-05-04 12:56 45.98460 14.45447 13396 ft 295 kts 141°
2026-05-04 12:56 45.96809 14.47348 13721 ft 313 kts 141°
2026-05-04 12:57 45.95064 14.49348 14036 ft 331 kts 141°
2026-05-04 12:57 45.93216 14.51460 14341 ft 348 kts 141°
2026-05-04 12:57 45.91287 14.53662 14711 ft 362 kts 141°
2026-05-04 12:57 45.89308 14.55918 15294 ft 368 kts 142°
2026-05-04 12:58 45.87309 14.58193 15907 ft 372 kts 142°
2026-05-04 12:58 45.85272 14.60507 16485 ft 378 kts 142°
2026-05-04 12:58 45.83197 14.62861 17049 ft 383 kts 142°
2026-05-04 12:58 45.81101 14.65236 17600 ft 388 kts 142°
2026-05-04 12:59 45.78969 14.67650 18138 ft 393 kts 142°
2026-05-04 12:59 45.76825 14.70074 18664 ft 398 kts 142°
2026-05-04 12:59 45.74629 14.72555 19182 ft 403 kts 142°
2026-05-04 12:59 45.72437 14.75028 19685 ft 408 kts 142°
2026-05-04 13:00 45.70194 14.77556 20188 ft 412 kts 142°
2026-05-04 13:00 45.67952 14.80079 20678 ft 417 kts 142°
2026-05-04 13:00 45.65647 14.82671 21168 ft 421 kts 142°
2026-05-04 13:00 45.63336 14.85267 21645 ft 426 kts 142°
2026-05-04 13:01 45.61013 14.87872 22110 ft 430 kts 142°
2026-05-04 13:01 45.58647 14.90519 22561 ft 435 kts 142°
2026-05-04 13:01 45.56267 14.93175 22988 ft 440 kts 141°
2026-05-04 13:01 45.53839 14.95887 23412 ft 446 kts 141°
2026-05-04 13:02 45.51407 14.98640 23834 ft 450 kts 138°
2026-05-04 13:02 45.49059 15.01599 24260 ft 453 kts 133°
2026-05-04 13:02 45.46861 15.04781 24691 ft 455 kts 128°
2026-05-04 13:02 45.44722 15.08116 25146 ft 458 kts 127°
2026-05-04 13:03 45.42586 15.11482 25599 ft 460 kts 126°
2026-05-04 13:03 45.40429 15.14882 26039 ft 463 kts 126°
2026-05-04 13:03 45.38292 15.18247 26423 ft 467 kts 126°
2026-05-04 13:03 45.36090 15.21701 26791 ft 471 kts 126°
2026-05-04 13:04 45.33889 15.25141 27146 ft 475 kts 126°
2026-05-04 13:04 45.31660 15.28615 27490 ft 479 kts 126°
2026-05-04 13:04 45.29397 15.32131 27825 ft 483 kts 126°
2026-05-04 13:04 45.27139 15.35635 28146 ft 486 kts 126°
2026-05-04 13:05 45.24871 15.39148 28458 ft 490 kts 126°
2026-05-04 13:05 45.22569 15.42709 28762 ft 493 kts 126°
2026-05-04 13:05 45.20229 15.46325 29065 ft 496 kts 126°
2026-05-04 13:05 45.17885 15.49940 29352 ft 499 kts 126°
2026-05-04 13:06 45.15533 15.53565 29630 ft 502 kts 126°
2026-05-04 13:06 45.13182 15.57182 29896 ft 505 kts 126°
2026-05-04 13:06 45.10784 15.60867 30153 ft 508 kts 126°
2026-05-04 13:06 45.08411 15.64508 30403 ft 511 kts 126°
2026-05-04 13:07 45.05998 15.68205 30648 ft 513 kts 127°
2026-05-04 13:07 45.03581 15.71902 30893 ft 516 kts 127°
2026-05-04 13:07 45.01122 15.75657 31219 ft 515 kts 127°
2026-05-04 13:07 44.98718 15.79322 31555 ft 515 kts 126°
2026-05-04 13:08 44.96267 15.83052 31890 ft 514 kts 126°
2026-05-04 13:08 44.93850 15.86727 32221 ft 514 kts 126°
2026-05-04 13:08 44.91421 15.90420 32542 ft 513 kts 126°
2026-05-04 13:08 44.89018 15.94072 32800 ft 514 kts 126°
2026-05-04 13:09 44.86589 15.97756 33033 ft 514 kts 126°
2026-05-04 13:09 44.84161 16.01436 33267 ft 515 kts 126°
2026-05-04 13:09 44.81727 16.05120 33494 ft 515 kts 126°
2026-05-04 13:09 44.79307 16.08774 33731 ft 515 kts 125°
2026-05-04 13:10 44.76844 16.12489 33956 ft 515 kts 125°
2026-05-04 13:10 44.74401 16.16168 34173 ft 516 kts 125°
2026-05-04 13:10 44.71960 16.19841 34397 ft 516 kts 125°
2026-05-04 13:10 44.69531 16.23488 34632 ft 515 kts 125°
2026-05-04 13:11 44.67094 16.27143 34906 ft 513 kts 125°
2026-05-04 13:11 44.64664 16.30782 35151 ft 513 kts 125°
2026-05-04 13:11 44.62237 16.34416 35350 ft 513 kts 125°
2026-05-04 13:11 44.59807 16.38048 35545 ft 513 kts 125°
2026-05-04 13:12 44.57360 16.41699 35781 ft 512 kts 125°
2026-05-04 13:12 44.54913 16.45344 36017 ft 511 kts 125°
2026-05-04 13:12 44.52484 16.48961 36211 ft 511 kts 125°
2026-05-04 13:12 44.50073 16.52542 36385 ft 511 kts 125°
2026-05-04 13:13 44.47634 16.56161 36583 ft 510 kts 125°
2026-05-04 13:13 44.45204 16.59762 36787 ft 509 kts 125°
2026-05-04 13:13 44.42797 16.63330 36949 ft 509 kts 125°
2026-05-04 13:13 44.40351 16.66953 37056 ft 511 kts 126°
2026-05-04 13:14 44.37912 16.70549 37185 ft 512 kts 126°
2026-05-04 13:14 44.35481 16.74130 37360 ft 511 kts 126°
2026-05-04 13:14 44.33040 16.77720 37501 ft 511 kts 126°
2026-05-04 13:14 44.30591 16.81319 37651 ft 511 kts 126°
2026-05-04 13:15 44.28205 16.84930 37803 ft 509 kts 124°
2026-05-04 13:15 44.25878 16.88577 37983 ft 507 kts 124°
2026-05-04 13:15 44.23550 16.92254 38137 ft 506 kts 123°
2026-05-04 13:15 44.21209 16.95937 38313 ft 505 kts 124°
2026-05-04 13:16 44.18909 16.99542 38472 ft 504 kts 124°
2026-05-04 13:16 44.16576 17.03187 38580 ft 504 kts 124°
2026-05-04 13:16 44.14256 17.06801 38676 ft 505 kts 124°
2026-05-04 13:17 44.09543 17.14119 38814 ft 507 kts 124°
2026-05-04 13:17 44.04857 17.21371 38929 ft 509 kts 124°
2026-05-04 13:18 44.00114 17.28689 39038 ft 511 kts 124°
2026-05-04 13:18 43.95363 17.36002 39117 ft 512 kts 124°
2026-05-04 13:19 43.90597 17.43313 39117 ft 512 kts 124°
2026-05-04 13:19 43.85855 17.50575 39119 ft 513 kts 124°
2026-05-04 13:20 43.81072 17.57874 39120 ft 512 kts 124°
2026-05-04 13:20 43.76287 17.65162 39121 ft 512 kts 125°
2026-05-04 13:21 43.71505 17.72428 39122 ft 512 kts 125°
2026-05-04 13:21 43.66726 17.79670 39120 ft 513 kts 125°
2026-05-04 13:22 43.61908 17.86948 39122 ft 512 kts 125°
2026-05-04 13:22 43.57135 17.94150 39119 ft 514 kts 125°
2026-05-04 13:23 43.52309 18.01406 39119 ft 513 kts 125°
2026-05-04 13:23 43.47498 18.08623 39116 ft 513 kts 125°
2026-05-04 13:24 43.42674 18.15839 39115 ft 513 kts 125°
2026-05-04 13:24 43.37848 18.23044 39114 ft 514 kts 126°
2026-05-04 13:25 43.30622 18.33787 39117 ft 512 kts 125°
2026-05-04 13:25 43.25790 18.40959 39116 ft 512 kts 125°
2026-05-04 13:26 43.20936 18.48147 39116 ft 514 kts 125°
2026-05-04 13:26 43.16092 18.55288 39120 ft 513 kts 125°
2026-05-04 13:27 43.11243 18.62427 39124 ft 514 kts 125°
2026-05-04 13:27 43.06388 18.69556 39129 ft 514 kts 126°
2026-05-04 13:28 43.01530 18.76668 39139 ft 513 kts 126°
2026-05-04 13:28 42.96652 18.83795 39145 ft 511 kts 126°
2026-05-04 13:29 42.91832 18.90816 39150 ft 506 kts 126°
2026-05-04 13:29 42.87074 18.97729 39148 ft 502 kts 126°
2026-05-04 13:30 42.82333 19.04631 39149 ft 496 kts 127°
2026-05-04 13:30 42.77670 19.11392 39145 ft 490 kts 129°
2026-05-04 13:31 42.73046 19.18069 39139 ft 483 kts 130°
2026-05-04 13:31 42.68473 19.24644 39132 ft 477 kts 130°
2026-05-04 13:32 42.63909 19.31188 39124 ft 476 kts 130°
2026-05-04 13:32 42.59370 19.37691 39125 ft 476 kts 130°
2026-05-04 13:33 42.54851 19.44152 39121 ft 476 kts 130°
2026-05-04 13:33 42.50282 19.50674 39123 ft 477 kts 130°
2026-05-04 13:34 42.45718 19.57172 39124 ft 477 kts 130°
2026-05-04 13:34 42.41176 19.63623 39123 ft 476 kts 130°
2026-05-04 13:35 42.34340 19.73313 39121 ft 477 kts 131°
2026-05-04 13:36 42.29753 19.79791 39122 ft 477 kts 131°
2026-05-04 13:36 42.25182 19.86234 39124 ft 477 kts 131°
2026-05-04 13:37 42.20607 19.92665 39122 ft 476 kts 131°
2026-05-04 13:37 42.16032 19.99088 39127 ft 477 kts 131°
2026-05-04 13:38 42.11442 20.05512 39131 ft 477 kts 131°
2026-05-04 13:38 42.06864 20.11908 39140 ft 477 kts 131°
2026-05-04 13:39 42.02280 20.18296 39144 ft 477 kts 130°
2026-05-04 13:39 41.97703 20.24663 39149 ft 476 kts 130°
2026-05-04 13:40 41.93086 20.31071 39149 ft 477 kts 131°
2026-05-04 13:40 41.88492 20.37425 39148 ft 477 kts 131°
2026-05-04 13:41 41.83899 20.43768 39149 ft 477 kts 131°
2026-05-04 13:41 41.79311 20.50169 39150 ft 476 kts 128°
2026-05-04 13:42 41.73325 20.60606 39148 ft 471 kts 119°
2026-05-04 13:42 41.69745 20.67939 39150 ft 471 kts 120°
2026-05-04 13:43 41.66152 20.75275 39148 ft 471 kts 120°
2026-05-04 13:43 41.62556 20.82571 39149 ft 471 kts 120°
2026-05-04 13:44 41.58969 20.89829 39147 ft 472 kts 120°
2026-05-04 13:44 41.55347 20.97165 39149 ft 475 kts 122°
2026-05-04 13:45 41.51725 21.04470 39150 ft 474 kts 123°
2026-05-04 13:45 41.48098 21.11745 39153 ft 470 kts 124°
2026-05-04 13:46 41.44503 21.18922 39148 ft 466 kts 124°
2026-05-04 13:46 41.40909 21.26088 39143 ft 467 kts 124°
2026-05-04 13:47 41.37309 21.33259 39139 ft 467 kts 124°
2026-05-04 13:47 41.33694 21.40445 39137 ft 467 kts 124°
2026-05-04 13:48 41.30104 21.47566 39136 ft 467 kts 124°
2026-05-04 13:48 41.26481 21.54738 39136 ft 466 kts 124°
2026-05-04 13:49 41.22881 21.61843 39131 ft 467 kts 124°
2026-05-04 13:49 41.19244 21.69011 39125 ft 467 kts 125°
2026-05-04 13:50 41.15628 21.76112 39127 ft 466 kts 125°
2026-05-04 13:50 41.12007 21.83205 39132 ft 467 kts 125°
2026-05-04 13:51 41.08364 21.90332 39139 ft 467 kts 126°
2026-05-04 13:51 41.04522 21.97280 39145 ft 467 kts 129°
2026-05-04 13:52 40.98711 22.07493 39149 ft 463 kts 131°
2026-05-04 13:53 40.94842 22.14267 39148 ft 458 kts 131°
2026-05-04 13:53 40.91011 22.20947 39146 ft 457 kts 131°
2026-05-04 13:54 40.85280 22.30927 39140 ft 457 kts 131°
2026-05-04 13:55 40.79539 22.40901 39134 ft 451 kts 131°
2026-05-04 13:55 40.73811 22.50834 39138 ft 456 kts 131°
2026-05-04 13:56 40.69808 22.57226 39127 ft 450 kts 141°
2026-05-04 13:56 40.64780 22.61841 39126 ft 440 kts 159°
2026-05-04 13:57 40.61981 22.63388 39128 ft 436 kts 163°
2026-05-04 13:58 40.50584 22.68767 39123 ft 435 kts 165°
2026-05-04 13:58 40.42073 22.72806 39124 ft 436 kts 165°
2026-05-04 13:59 40.36418 22.75496 39122 ft 435 kts 165°
2026-05-04 14:00 40.27884 22.79549 39123 ft 436 kts 165°
2026-05-04 14:00 40.19382 22.83577 39121 ft 436 kts 165°
2026-05-04 14:01 40.13681 22.86272 39122 ft 436 kts 165°
2026-05-04 14:02 40.05158 22.90292 39123 ft 437 kts 165°
2026-05-04 14:02 39.99414 22.92997 39123 ft 438 kts 165°
2026-05-04 14:03 39.93709 22.95678 39124 ft 439 kts 165°
2026-05-04 14:03 39.87999 22.98356 39130 ft 439 kts 165°
2026-05-04 14:04 39.79383 23.02388 39141 ft 440 kts 164°
2026-05-04 14:04 39.73655 23.05063 39146 ft 440 kts 164°
2026-05-04 14:05 39.65023 23.09086 39147 ft 441 kts 165°
2026-05-04 14:06 39.59278 23.11756 39148 ft 441 kts 164°
2026-05-04 14:06 39.53513 23.14432 39148 ft 440 kts 164°
2026-05-04 14:07 39.47807 23.17077 38976 ft 440 kts 164°
2026-05-04 14:07 39.44885 23.18428 38302 ft 444 kts 164°
2026-05-04 14:07 39.41993 23.19763 37420 ft 448 kts 164°
2026-05-04 14:07 39.39055 23.21120 36404 ft 451 kts 164°
2026-05-04 14:08 39.36174 23.22450 35297 ft 449 kts 164°
2026-05-04 14:08 39.33247 23.23800 33892 ft 452 kts 164°
2026-05-04 14:08 39.30291 23.25158 32421 ft 453 kts 164°
2026-05-04 14:08 39.27407 23.26485 31665 ft 437 kts 164°
2026-05-04 14:09 39.21724 23.29099 30614 ft 431 kts 163°
2026-05-04 14:09 39.18958 23.30368 30081 ft 427 kts 163°
2026-05-04 14:10 39.13438 23.32900 29349 ft 418 kts 163°
2026-05-04 14:10 39.10694 23.34156 28968 ft 414 kts 163°
2026-05-04 14:10 39.08009 23.35383 28587 ft 411 kts 163°
2026-05-04 14:10 39.05338 23.36604 28203 ft 408 kts 163°
2026-05-04 14:11 39.02703 23.37807 27787 ft 405 kts 163°
2026-05-04 14:11 38.97425 23.40217 26751 ft 402 kts 163°
2026-05-04 14:11 38.94806 23.41410 26183 ft 401 kts 163°
2026-05-04 14:12 38.92173 23.42609 25602 ft 401 kts 163°
2026-05-04 14:12 38.89556 23.43799 25009 ft 402 kts 163°
2026-05-04 14:12 38.84311 23.46179 23856 ft 402 kts 162°
2026-05-04 14:13 38.81688 23.47370 23345 ft 399 kts 162°
2026-05-04 14:13 38.79112 23.48538 22859 ft 397 kts 162°
2026-05-04 14:13 38.76541 23.49703 22379 ft 394 kts 162°
2026-05-04 14:13 38.73960 23.50872 21899 ft 391 kts 162°
2026-05-04 14:14 38.71406 23.52022 21420 ft 388 kts 164°
2026-05-04 14:14 38.66150 23.53057 20273 ft 385 kts 177°
2026-05-04 14:14 38.63488 23.53308 19643 ft 386 kts 177°
2026-05-04 14:15 38.58148 23.53870 18367 ft 387 kts 176°
2026-05-04 14:15 38.52933 23.54493 17320 ft 373 kts 175°
2026-05-04 14:16 38.47858 23.55126 16375 ft 367 kts 175°
2026-05-04 14:16 38.45322 23.55446 15908 ft 364 kts 175°
2026-05-04 14:17 38.40344 23.56077 14994 ft 358 kts 175°
2026-05-04 14:17 38.37871 23.56390 14539 ft 355 kts 175°
2026-05-04 14:17 38.33030 23.57005 13650 ft 350 kts 175°
2026-05-04 14:18 38.30629 23.57309 13207 ft 347 kts 175°
2026-05-04 14:18 38.25882 23.58256 12297 ft 342 kts 169°
2026-05-04 14:19 38.21279 23.59409 11351 ft 338 kts 169°
2026-05-04 14:19 38.18967 23.59994 10872 ft 336 kts 169°
2026-05-04 14:19 38.16684 23.60573 10395 ft 334 kts 169°
2026-05-04 14:19 38.14437 23.61146 9924 ft 332 kts 169°
2026-05-04 14:20 38.12219 23.61713 9454 ft 314 kts 169°
2026-05-04 14:20 38.10136 23.62251 8977 ft 299 kts 169°
2026-05-04 14:20 38.08102 23.62778 8487 ft 300 kts 169°
2026-05-04 14:21 38.04012 23.63841 7534 ft 301 kts 169°
2026-05-04 14:21 38.01968 23.64373 7060 ft 302 kts 169°
2026-05-04 14:21 37.99939 23.64899 6591 ft 302 kts 169°
2026-05-04 14:21 37.97929 23.65420 6122 ft 288 kts 169°
2026-05-04 14:22 37.96006 23.65915 5644 ft 281 kts 169°
2026-05-04 14:22 37.94099 23.66399 5162 ft 283 kts 169°
2026-05-04 14:22 37.92161 23.66881 4734 ft 279 kts 169°
2026-05-04 14:22 37.90259 23.67348 4305 ft 280 kts 169°
2026-05-04 14:23 37.86588 23.68233 3452 ft 266 kts 169°
2026-05-04 14:23 37.84804 23.68647 3076 ft 255 kts 169°
2026-05-04 14:23 37.83114 23.69033 2982 ft 241 kts 169°
2026-05-04 14:24 37.81502 23.69394 2983 ft 233 kts 169°
2026-05-04 14:24 37.79899 23.69753 2986 ft 233 kts 169°
2026-05-04 14:24 37.78300 23.70114 2987 ft 233 kts 169°
2026-05-04 14:24 37.76739 23.70612 2975 ft 233 kts 152°
2026-05-04 14:25 37.75546 23.71924 2979 ft 230 kts 119°
2026-05-04 14:25 37.75294 23.75786 3009 ft 225 kts 77°
2026-05-04 14:25 37.75676 23.77698 2996 ft 223 kts 66°
2026-05-04 14:26 37.76599 23.79232 2988 ft 222 kts 39°
2026-05-04 14:26 37.77781 23.80423 2993 ft 212 kts 37°
2026-05-04 14:26 37.78925 23.81547 2981 ft 200 kts 37°
2026-05-04 14:26 37.79964 23.82566 3050 ft 184 kts 37°
2026-05-04 14:27 37.80983 23.83568 3038 ft 184 kts 36°
2026-05-04 14:27 37.82005 23.84526 3013 ft 183 kts 36°
2026-05-04 14:27 37.83037 23.85481 3001 ft 183 kts 36°
2026-05-04 14:27 37.84059 23.86441 2997 ft 183 kts 36°
2026-05-04 14:28 37.85065 23.87390 2971 ft 180 kts 36°
2026-05-04 14:28 37.86059 23.88338 2624 ft 179 kts 37°
2026-05-04 14:28 37.87035 23.89270 2195 ft 178 kts 36°
2026-05-04 14:28 37.88005 23.90198 1817 ft 170 kts 36°
2026-05-04 14:29 37.89812 23.91916 1058 ft 155 kts 38°
2026-05-04 14:29 37.91414 23.93438 591 ft 135 kts 37°
2026-05-04 14:30 37.92166 23.94148 387 ft 135 kts 38°
2026-05-04 14:30 37.92901 23.94850 278 ft 122 kts 37°
2026-05-04 14:30 37.93698 23.95593 268 ft 14 kts 31°
2026-05-04 14:31 37.93746 23.95583 269 ft 4 kts 315°
2026-05-04 14:31 37.93751 23.95576 270 ft 0 kts 314°
2026-05-04 14:32 37.93750 23.95578 270 ft 1 kts 314°
2026-05-04 14:32 37.93765 23.95558 271 ft 0 kts 312°
2026-05-04 14:32 37.93764 23.95559 271 ft 0 kts 312°
2026-05-04 14:32 37.93789 23.95522 273 ft 9 kts 308°
2026-05-04 14:33 37.93830 23.95450 276 ft 17 kts 306°
2026-05-04 14:33 37.93919 23.95291 285 ft 18 kts 306°
2026-05-04 14:33 37.93993 23.95175 290 ft 15 kts 308°
2026-05-04 14:33 37.94025 23.95120 292 ft 3 kts 312°
2026-05-04 14:34 37.94044 23.95129 292 ft 4 kts 38°
2026-05-04 14:34 37.94067 23.95151 292 ft 3 kts 37°
2026-05-04 14:34 37.94088 23.95171 292 ft 3 kts 37°
2026-05-04 14:34 37.94094 23.95178 292 ft 0 kts 37°